Weather in Tashla

Russia / Orenburg Oblast     52°24′31″N   56°14′10″E
temp.,
°C
wind,
m/s
gust,
m/s
humid.,
%
clouds,
%
prec.,
mm/h
press.,
hPa
HPBL,
m
1 march, mon
mon123:00−11wsw129797 0.4 100821
02:00−12sw119697 0.3 101120
05:00−14wsw119796 0.6 101320
08:00−15n019694 0.1 101520
11:00−12ssw009192 0.2 1016222
14:00−10wsw2288100 0.1 1017331
17:00−11w2392100 0.3 1018303
20:00−15wnw239799 0.2 101957
2 march, tue
tue223:00−19w2210091 0.3 102020
02:00−21w2210089 0.0 102020
05:00−23wsw2210094 0.1 102120
08:00−24sw22100100 0.0 102024
11:00−20ssw3598100 0.1 1019234
14:00−17ssw61096100 0.1 1015347
17:00−14ssw71295100 0.6 1013493
20:00−11ssw71595100 1.3 1011618
3 march, wed
wed323:00−7ssw71495100 2.6 1008711
02:00−5sw81495100 1.7 1005700
05:00−5sw71395100 3.9 1004648
08:00−5sw61196100 1.8 1003548
11:00−3sw6995100 2.7 1003538
14:00−2wsw4697100 0.6 1003471
17:00−2wsw3494100 0.9 1002392
20:00−5nw229799 0.2 100327
4 march, thu
thu423:00−9nw229594 0.2 100421
02:00−11wnw229791 0.1 100421
05:00−11w229783 0.2 100625
08:00−13w239895 0.1 100837
11:00−11wnw379398 0.1 1009317
14:00−10w4893100 0.1 1010438
17:00−9sw51094100 0.2 1011453
20:00−9sw61295100 0.5 1011476
5 march, fri
fri523:00−7sw81594100 1.1 1011768
02:00−6sw101694100 0.7 1008853
05:00−4sw101795100 2.2 1006878
08:00−3sw121894100 0.8 10061003
11:00−4sw121895100 1.3 1006972
14:00−2wsw101596100 1.9 1007968
17:00−2wsw81396100 3.4 1010837
20:00−2w5997100 1.9 1012500